[[{"header":{"parameterUnit":"m.s-1","parameterCategory":1,"la1":30.2992,"la2":30.254,"lo1":-89.0895,"lo2":-89.0443,"dy":0.0025,"dx":0.0025,"nx":19,"ny":19,"refTime":"2026-05-04T03:00:00:Z","depth":0,"parameterNumber":2,"parameterNumberName":"U-component_of_WINDS"},"data":[0,0,0,-0.7479,-0.7479,-0.7459,-0.7459,-0.744,-0.744,0,0,0,0,0,0,0,0,0,0,0,-0.7489,-0.7489,-0.7479,-0.7479,-0.7459,-0.7459,-0.744,-0.744,0,0,0,0,0,0,0,0,0,0,0,-0.7489,-0.7489,-0.7489,-0.7479,-0.7459,-0.7459,-0.744,-0.7452,0,0,0,0,0,0,0,0,0,0,-0.7471,-0.7483,-0.7489,-0.7489,-0.7479,-0.7459,-0.7459,-0.7453,-0.7452,-0.7451,0,-0.7452,0,-0.7445,-0.7439,-0.7439,0,0,0,-0.7476,-0.7484,-0.7475,-0.7489,-0.7479,-0.7459,-0.7467,-0.7452,-0.7451,-0.7449,-0.7451,-0.745,-0.7445,-0.7439,-0.7438,-0.7446,-0.7446,0,0,-0.7477,-0.7487,-0.7476,-0.7475,-0.7478,-0.7468,-0.7467,-0.7451,-0.7454,-0.7451,-0.745,-0.7445,-0.7438,-0.7438,-0.7445,-0.7446,0,0,0,-0.7482,-0.7488,-0.7479,-0.7476,-0.7472,-0.7467,-0.7466,-0.7454,-0.7451,-0.745,-0.7444,-0.7438,-0.7438,-0.7445,-0.7445,-0.7464,0,0,0,-0.7483,-0.7491,-0.748,-0.7486,-0.7472,-0.7463,-0.747,-0.7452,-0.745,-0.7445,-0.7438,-0.7438,-0.7445,-0.7445,-0.7463,-0.7471,0,0,0,-0.7489,-0.7491,-0.749,-0.7486,-0.7478,-0.7463,-0.7458,-0.7451,-0.7447,-0.7439,-0.7438,-0.7445,-0.7445,-0.7462,-0.7469,-0.7477,0,0,0,-0.7498,-0.7505,-0.749,-0.7496,-0.7479,-0.7474,-0.7458,-0.7454,-0.7449,-0.7438,-0.7445,-0.7445,-0.7462,-0.7469,-0.7476,-0.7485,-0.749,0,0,-0.7513,-0.7507,-0.751,-0.7496,-0.7497,-0.7476,-0.748,-0.7465,-0.7455,-0.7449,-0.7449,-0.7463,-0.7469,-0.7476,-0.751,-0.7513,0,0,0,-0.7518,-0.7521,-0.7519,-0.7515,-0.7505,-0.7497,-0.7481,-0.7476,-0.7471,-0.7454,-0.7467,-0.747,-0.7474,-0.7478,-0.7481,-0.7484,-0.7447,-0.7447,-0.7447,-0.7553,-0.7541,-0.7546,-0.7531,-0.7527,-0.7512,-0.7508,-0.7498,-0.7486,-0.7489,-0.7488,-0.7509,-0.7515,-0.7517,-0.752,-0.7491,-0.7491,-0.7491,-0.7491,-0.7575,-0.7577,-0.7562,-0.7561,-0.7548,-0.7547,-0.7532,-0.7524,-0.7522,-0.7509,-0.7512,-0.7501,-0.7521,-0.7524,-0.7492,-0.7492,-0.7492,-0.7492,-0.7492,-0.7597,-0.7596,-0.759,-0.7584,-0.7581,-0.7566,-0.7565,-0.7552,-0.754,-0.7543,-0.7541,-0.7541,-0.754,-0.7543,-0.7543,-0.7543,-0.7543,-0.7543,-0.7543,-0.7623,-0.7616,-0.7617,-0.7607,-0.7604,-0.7598,-0.7583,-0.7579,-0.7572,-0.7563,-0.7563,-0.7551,-0.7525,-0.752,-0.7544,-0.7544,-0.7544,-0.7544,-0.7544,-0.7651,-0.7643,-0.7645,-0.7641,-0.763,-0.7628,-0.7613,-0.7606,-0.7601,-0.7601,-0.7589,-0.7572,-0.7565,-0.7563,-0.7558,-0.7591,-0.7591,-0.7591,-0.7591,-0.7671,-0.7667,-0.7666,-0.7662,-0.7656,-0.7643,-0.7645,-0.7634,-0.7621,-0.7617,-0.7611,-0.7603,-0.7601,-0.7596,-0.7593,-0.7588,-0.7628,-0.7628,-0.7628,-0.7688,-0.7683,-0.7688,-0.7676,-0.7666,-0.7659,-0.7661,-0.7657,-0.764,-0.763,-0.7615,-0.7613,-0.7601,-0.7597,-0.7587,-0.7582,-0.7573,0,0]},{"header":{"parameterUnit":"m.s-1","parameterCategory":1,"la1":30.2992,"la2":30.254,"lo1":-89.0895,"lo2":-89.0443,"dy":0.0025,"dx":0.0025,"nx":19,"ny":19,"refTime":"2026-05-04T03:00:00:Z","depth":0,"parameterNumber":3,"parameterNumberName":"V-component_of_WINDS"},"data":[0,0,0,4.9178,4.9178,4.9167,4.9167,4.9178,4.9179,0,0,0,0,0,0,0,0,0,0,0,4.9199,4.92,4.9178,4.9178,4.9167,4.9167,4.9178,4.9179,0,0,0,0,0,0,0,0,0,0,0,4.9199,4.92,4.9201,4.9178,4.9167,4.9167,4.9178,4.9177,0,0,0,0,0,0,0,0,0,0,4.9183,4.9221,4.9199,4.9201,4.9178,4.9168,4.9167,4.9176,4.9177,4.9195,0,4.9217,0,4.9198,4.9181,4.9181,0,0,0,4.9165,4.922,4.9201,4.9201,4.9179,4.9168,4.9168,4.9176,4.9177,4.9196,4.9217,4.9217,4.9199,4.9181,4.9182,4.9331,4.9332,0,0,4.9165,4.9207,4.9201,4.9203,4.9208,4.9169,4.9168,4.9176,4.9202,4.9217,4.9217,4.9199,4.9182,4.9182,4.933,4.9332,0,0,0,4.9176,4.9208,4.9188,4.9203,4.9199,4.9169,4.9168,4.9202,4.9192,4.9217,4.9199,4.9182,4.9182,4.9328,4.933,4.9435,0,0,0,4.9176,4.9214,4.9189,4.9214,4.92,4.9201,4.9194,4.9191,4.9191,4.9199,4.9182,4.9183,4.9327,4.9329,4.9429,4.9477,0,0,0,4.9194,4.9216,4.922,4.9216,4.9213,4.92,4.919,4.919,4.9181,4.9181,4.9183,4.9326,4.9329,4.9423,4.9468,4.9525,0,0,0,4.9224,4.9315,4.9223,4.9317,4.9213,4.9266,4.9189,4.9226,4.9239,4.9182,4.9327,4.933,4.9421,4.9462,4.952,4.9579,4.9609,0,0,4.9362,4.9334,4.9385,4.9302,4.9381,4.9264,4.9357,4.933,4.9293,4.932,4.9323,4.9431,4.9467,4.9524,4.9765,4.9789,0,0,0,4.9443,4.948,4.9492,4.9506,4.9488,4.9475,4.9429,4.9418,4.9439,4.9316,4.9467,4.9488,4.9519,4.9545,4.9566,4.9588,4.9345,4.9345,4.9344,4.9696,4.9642,4.9722,4.9666,4.9681,4.9631,4.9637,4.9613,4.9556,4.9592,4.9599,4.9752,4.9785,4.98,4.9824,4.9629,4.9629,4.963,4.963,4.9889,4.9932,4.9851,4.99,4.9841,4.9881,4.9835,4.9792,4.9819,4.9744,4.9768,4.9689,4.9828,4.9845,4.9637,4.9636,4.9635,4.9634,4.9634,5.0047,5.0057,5.0043,5.0055,5.007,5.0009,5.0037,4.9983,4.9932,4.9957,4.9956,4.9954,4.9942,4.9961,4.9962,4.9962,4.9963,4.9963,4.9963,5.0215,5.0195,5.0226,5.0211,5.0211,5.0203,5.0152,5.0149,5.0132,5.009,5.009,5.0026,4.9853,4.9808,4.9971,4.997,4.9969,4.9968,4.9968,5.0427,5.0369,5.0417,5.0417,5.0392,5.0408,5.0339,5.0337,5.0327,5.0342,5.0272,5.0154,5.012,5.0104,5.0066,5.0286,5.0286,5.0286,5.0286,5.0557,5.0535,5.0569,5.0571,5.0567,5.0508,5.0559,5.0518,5.0467,5.0456,5.0417,5.0364,5.035,5.0324,5.0303,5.0267,5.0533,5.0533,5.0533,5.0682,5.0657,5.0712,5.0662,5.0638,5.0617,5.0662,5.0665,5.0595,5.0542,5.0446,5.0435,5.0349,5.0324,5.0268,5.0236,5.0169,0,0]}]]